Location: El Diablo
(32.4667°N, 116.4500°W)
Time: 03:31:05
(UTC+00:00)

ARGOS - Pass Details

Date: 10 September 2024
Orbit: 818 x 834 km, 98.4° (Epoch: 06 October)

Event Time Altitude Azimuth Distance (km) Brightness Sun altitude
Rises 12:14:12 0° 16° (NNE) 3,351 6.8 -15.9°
Reaches altitude 10° 12:16:34 10° 19° (NNE) 2,416 6.1 -15.4°
Maximum altitude 12:21:53 65° 101° (ESE) 895 3.6 -14.3°
Drops below altitude 10° 12:27:10 10° 183° (S) 2,408 5.4 -13.2°
Sets 12:29:32 0° 187° (S) 3,339 6.1 -12.7°
